Location: Voyageurs National Park
(48.5020°N, 92.9292°W)
Time: 19:15:57
(UTC-05:00)

Daily predictions for brighter satellites

Satellite Brightness Start Highest point End
(mag) Time Altitude Azimuth Time Altitude Azimuth Time Altitude Azimuth
NOAA 11 4.2 21:48:13 10° SSE 21:53:39 87° ENE 21:59:08 10° NNW
RESURS DK-1 3.2 21:50:49 10° NNW 21:54:49 41° NE 21:58:46 10° SE
Cosmos 1242 Rocket 2.6 21:54:06 10° N 21:57:50 76° ENE 22:01:33 10° SSE
SL-08 RB Rocket 4.0 21:56:56 10° SSE 22:01:24 58° ENE 22:05:57 10° N
Cosmos 1570 Rocket 4.3 21:57:00 10° NNW 22:02:20 73° WSW 22:07:34 10° SSE
SPOT 1/Viking Rocket 3.9 21:57:24 10° SE 22:02:22 52° ENE 22:07:22 10° N
YAOGAN 11 4.3 21:59:15 10° SSE 22:03:43 71° ENE 22:08:16 10° N
Cosmos 1140 Rocket 3.8 21:58:56 10° SSW 22:04:05 71° WNW 22:09:16 10° NNE
Cosmos 1766 Rocket 4.0 22:00:13 10° SSE 22:04:18 42° E 22:08:25 10° NNE
USA 32 4.4 21:59:33 10° SSW 22:04:46 69° W 22:10:02 10° N
Cosmos 2082 4.4 22:00:43 10° SW 22:06:16 61° WNW 22:11:53 10° NNE
Meteor 1-21 Rocket 4.3 22:01:36 10° S 22:07:12 63° E 22:12:44 10° NNE
USA 245 3.2 22:04:04 10° SSE 22:07:25 72° ENE 22:11:40 10° N
Cosmos 1328 Rocket 4.3 22:04:37 10° N 22:08:42 37° ENE 22:12:42 10° SE
EO 1 Delta rocket 4.2 22:04:36 10° SSE 22:09:08 49° ENE 22:13:38 10° N
Cosmos 1763 Rocket 4.3 22:04:49 10° N 22:09:38 38° ENE 22:14:21 10° SE
Cosmos 2228 Rocket 4.0 22:05:50 10° N 22:10:07 37° ENE 22:14:22 10° SE
Cosmos 2297 Rocket 3.0 22:07:18 10° SW 22:12:52 58° WNW 22:18:29 10° NNE
SL-14 R/B 4.4 22:10:59 10° SSE 22:14:21 27° E 22:17:41 10° NNE
Cosmos 1867 3.7 22:14:04 10° SSW 22:19:22 56° ESE 22:24:44 10° NE
H-2A R/B 3.3 22:17:29 10° SE 22:21:11 28° ENE 22:24:50 10° N
Cosmos 1151 Rocket 4.2 22:17:19 10° N 22:21:12 30° ENE 22:24:51 11° SE
Cosmos 1300 3.1 22:17:49 10° N 22:21:33 47° ENE 22:25:01 12° SSE
Cosmos 1459 Rocket 4.2 22:15:33 10° NNW 22:21:53 76° W 22:28:06 10° S
Cosmos 2100 Rocket 4.3 22:15:45 10° NNW 22:22:01 71° W 22:28:18 10° S
Cosmos 1340 Rocket 4.2 22:18:23 10° SW 22:22:13 42° WNW 22:26:07 10° N
Cosmos 2061 Rocket 4.2 22:16:39 10° N 22:23:02 81° W 22:29:27 10° S
Cosmos 2263 Rocket 3.6 22:21:44 10° SE 22:25:17 18° E 22:28:58 10° ENE
Cosmos 1626 4.1 22:25:43 10° ESE 22:27:44 14° E 22:29:48 10° NE
Cosmos 1726 2.1 22:26:17 10° N 22:29:59 78° ENE 22:33:27 11° SSE
Meteor 2-10 4.3 22:26:48 10° N 22:32:21 66° ENE 22:37:39 12° SSE
ATLAS 5 CENTAUR R/B 1.8 22:28:20 10° SW 22:33:04 89° SE 22:38:19 10° NE
Lacrosse 5 1.9 22:28:35 10° WNW 22:33:39 74° SW 22:38:08 13° SE
SPOT 5 3.3 22:28:57 10° S 22:33:45 66° WSW 22:38:51 10° NNW
Cosmos 2084 3.1 22:30:17 10° SSW 22:34:14 72° SE 22:38:02 10° NE
Cosmos 2173 Rocket 4.4 22:29:04 10° NNW 22:35:07 62° W 22:41:13 10° S
Cosmos 1850 Rocket 4.5 22:30:55 10° SSW 22:36:04 65° WNW 22:41:16 10° NNE
Cosmos 468 Rocket 4.0 22:31:50 10° NNW 22:36:59 80° WSW 22:41:43 12° SSE
IGS 5A 4.0 22:33:58 13° SE 22:37:26 45° ENE 22:41:25 10° N
Cosmos 2123 Rocket 4.1 22:31:28 10° S 22:37:32 63° E 22:43:40 10° NNE
Cosmos 371 Rocket 3.3 22:35:26 10° NNW 22:40:17 77° ENE 22:44:22 14° SSE
Nimbus 7 Rocket 4.4 22:36:22 10° NNE 22:42:27 73° ESE 22:48:24 10° S
USA 234 3.3 22:36:45 10° ENE 22:43:15 62° SE 22:49:43 10° SW
Cosmos 1603 3.9 22:38:39 10° NNW 22:44:20 72° WSW 22:49:18 13° SSE
Abrixas rocket 2.2 22:41:51 10° W 22:45:03 60° SSW 22:47:34 15° ESE
H-2A R/B 2.3 22:41:26 10° S 22:46:45 73° WSW 22:52:12 10° NNW
PSLV R/B 4.3 22:49:41 17° ESE 22:51:16 28° ENE 22:53:47 10° N
Cosmos 1674 4.3 22:50:39 10° SW 22:54:06 34° WNW 22:57:34 10° N
Lacrosse 4 Rocket 4.5 22:50:50 10° W 22:54:07 21° NW 22:57:30 10° N
Cosmos 1455 3.5 22:52:03 10° N 22:55:27 28° ENE 22:57:48 16° ESE
Cosmos 1725 Rocket 4.1 22:50:25 10° N 22:56:43 81° W 23:02:34 12° S
SL-16 R/B 4.2 22:56:40 10° NW 23:00:49 21° W 23:04:57 10° SSW
Cosmos 1943 3.2 22:55:54 10° NNW 23:01:36 84° ENE 23:05:59 17° SSE
Cosmos 220 Rocket 4.1 22:57:30 10° S 23:01:47 59° ESE 23:06:06 10° NNE
Landsat 7 4.1 22:59:49 14° S 23:03:56 67° WSW 23:08:42 10° NNW
deb Chang Zheng 4 4.2 23:00:10 10° NNE 23:04:18 40° E 23:07:04 19° SSE
Cosmos 1408 Rocket 4.5 23:02:24 10° SSW 23:06:32 46° WNW 23:10:45 10° N
Tiangong 1 1.9 23:05:32 10° WSW 23:07:53 24° S 23:07:54 24° S
CZ-4B R/B 4.2 23:04:58 10° NNE 23:09:54 38° E 23:13:09 19° SSE
CZ-4 R/B 4.3 23:06:33 10° NNE 23:11:16 45° E 23:14:23 19° SSE
Cosmos 540 Rocket 4.0 23:09:57 10° NNW 23:15:00 51° ENE 23:18:37 18° SE
DMSP B5D2-2 4.1 23:10:24 10° NNE 23:15:40 86° WNW 23:20:54 10° SSW
Cosmos 2058 3.0 23:15:04 20° S 23:17:54 64° E 23:22:05 10° NNE
Cosmos 1703 3.6 23:16:13 22° SSE 23:18:32 51° E 23:22:26 10° NNE
Terra 2.0 23:15:15 17° S 23:18:53 68° WSW 23:23:39 10° NNW
Cosmos 1356 3.4 23:18:00 22° S 23:20:04 68° E 23:23:34 10° NNE
Cosmos 1464 Rocket 4.5 23:15:42 10° N 23:21:39 49° ENE 23:25:54 19° SE
Cosmos 1500 Rocket 3.7 23:22:19 14° SSW 23:26:06 79° W 23:30:35 10° N
ERBS 3.0 23:23:31 10° WNW 23:26:43 39° SW 23:27:57 28° S
Meteor 1-11 4.3 23:22:53 13° S 23:28:07 88° E 23:33:58 10° NNE
Cosmos 1354 Rocket 4.4 23:26:34 21° SSE 23:29:46 45° ESE 23:34:46 10° NNE
RESURS DK-1 4.1 23:29:18 10° NW 23:32:39 24° WSW 23:35:16 14° SSW
Cosmos 2151 3.1 23:30:36 17° SSW 23:33:52 77° W 23:38:11 10° N
CZ-3A R/B 2.0 23:33:35 10° NW 23:33:52 15° NW 23:33:52 15° NW
CZ-2C R/B 4.0 23:30:37 10° NE 23:34:50 23° E 23:37:05 18° SE
CARTOSAT-1 4.4 23:32:40 17° SSW 23:35:42 43° W 23:39:51 10° NNW
SME Rocket 3.1 23:34:18 26° SSE 23:36:27 73° ENE 23:41:12 10° NNW
SS 1 4.4 23:35:05 10° NW 23:37:58 78° SW 23:39:00 37° SSE
BREEZE-M DEB (TANK) 2.9 23:36:12 10° W 23:39:01 81° N 23:48:57 10° E
Spot 4 3.9 23:39:25 23° S 23:42:28 77° WSW 23:47:22 10° NNW
Cosmos 1486 Rocket 4.1 23:37:26 10° SSW 23:42:42 79° WNW 23:48:03 10° NNE
SL-24 R/B 4.5 23:41:34 26° S 23:43:49 81° WSW 23:48:02 10° NNW
Cosmos 1805 Rocket 3.8 23:42:50 27° SSE 23:44:56 53° E 23:49:11 10° NNE
Cosmos 304 Rocket 3.7 23:41:29 10° NNW 23:46:18 80° WSW 23:48:57 27° SSE
Cosmos 841 Rocket 4.2 23:43:03 10° NNW 23:48:04 45° WSW 23:51:18 20° SSW
Cosmos 1633 Rocket 3.9 23:49:53 25° SE 23:51:35 35° E 23:55:34 10° NNE
